TimeMST,TemperatureF,Dew PointF,Humidity,Sea Level PressureIn,VisibilityMPH,Wind Direction,Wind SpeedMPH,Gust SpeedMPH,PrecipitationIn,Events,Conditions,WindDirDegrees,DateUTC
12:53 AM,23.0,15.1,72,30.38,10.0,WSW,17.3,26.5,N/A,,Clear,240,2013-12-15 07:53:00
1:53 AM,24.1,15.1,69,30.34,10.0,WSW,19.6,28.8,N/A,,Clear,240,2013-12-15 08:53:00
2:53 AM,21.9,15.1,75,30.39,10.0,WSW,25.3,33.4,N/A,,Clear,250,2013-12-15 09:53:00
3:53 AM,23.0,16.0,74,30.37,10.0,WSW,17.3,26.5,N/A,,Clear,250,2013-12-15 10:53:00
4:53 AM,23.0,16.0,74,30.39,10.0,WSW,8.1,-,N/A,,Scattered Clouds,240,2013-12-15 11:53:00
5:53 AM,24.1,16.0,71,30.36,10.0,WSW,24.2,38.0,N/A,,Clear,250,2013-12-15 12:53:00
6:53 AM,24.1,15.1,69,30.38,10.0,WSW,26.5,33.4,N/A,,Clear,240,2013-12-15 13:53:00
7:53 AM,24.1,15.1,69,30.37,10.0,WSW,26.5,35.7,N/A,,Clear,250,2013-12-15 14:53:00
8:53 AM,28.0,15.1,58,30.37,10.0,WSW,24.2,36.8,N/A,,Clear,250,2013-12-15 15:53:00
9:53 AM,30.9,16.0,54,30.38,10.0,WSW,21.9,32.2,N/A,,Clear,240,2013-12-15 16:53:00
10:53 AM,33.1,17.1,52,30.34,10.0,West,16.1,29.9,N/A,,Clear,260,2013-12-15 17:53:00
11:53 AM,34.0,18.0,52,30.31,10.0,West,16.1,25.3,N/A,,Clear,260,2013-12-15 18:53:00
12:53 PM,36.0,17.1,46,30.29,10.0,WSW,31.1,41.4,N/A,,Clear,240,2013-12-15 19:53:00
1:53 PM,34.0,18.0,52,30.30,10.0,WSW,20.7,27.6,N/A,,Clear,240,2013-12-15 20:53:00
2:53 PM,35.1,18.0,50,30.28,10.0,WSW,24.2,32.2,N/A,,Clear,250,2013-12-15 21:53:00
3:53 PM,34.0,18.0,52,30.29,10.0,SW,21.9,29.9,N/A,,Clear,230,2013-12-15 22:53:00
4:53 PM,33.1,18.0,54,30.31,10.0,SW,10.4,23.0,N/A,,Clear,220,2013-12-15 23:53:00
5:53 PM,34.0,18.0,52,30.27,10.0,WSW,26.5,39.1,N/A,,Clear,240,2013-12-16 00:53:00
6:53 PM,33.1,18.0,54,30.25,10.0,WSW,32.2,43.7,N/A,,Clear,240,2013-12-16 01:53:00
7:53 PM,32.0,18.0,56,30.26,10.0,WSW,32.2,40.3,N/A,,Clear,240,2013-12-16 02:53:00
8:53 PM,32.0,17.1,54,30.23,10.0,WSW,32.2,42.6,N/A,,Clear,250,2013-12-16 03:53:00
9:53 PM,32.0,16.0,52,30.19,10.0,WSW,38.0,50.6,N/A,,Clear,250,2013-12-16 04:53:00
10:53 PM,32.0,14.0,48,30.19,10.0,WSW,43.7,57.5,N/A,,Clear,250,2013-12-16 05:53:00
11:53 PM,32.0,14.0,48,30.19,10.0,WSW,39.1,52.9,N/A,,Clear,250,2013-12-16 06:53:00